This demonstration page uses our WeatherBlox Daily Observations layout. Learn more.

Left ArrowRight Arrow

38.83388, -104.82136

Hourly Observations for April 11, 2022

Temp ( °F °C ) Dew Point ( °F °C ) Humidity (%) Winds ( mph kmh ) Pressure ( in mb ) Visibility ( mi km ) Precip ( " mm )
12:58 am 00:58 undefined N/A N/A N/A undefined N/A N/A 10 16 0.00 0.00
1:58 am 01:58 undefined N/A N/A N/A undefined N/A N/A 10 16 0.00 0.00
2:58 am 02:58 undefined 33 0.7 -1 -18.1 23 23 ESE 13 20 29.47 998 10 16 0.00 0.00
3:58 am 03:58 undefined 32 0 -2 -18.7 23 23 E 15 24 29.47 998 10 16 0.00 0.00
4:58 am 04:58 Clear 31 -0.3 -2 -19 23 23 E 15 24 29.48 998 10 16 0.00 0.00
5:58 am 05:58 Clear 29 -1.8 -3 -19.3 25 25 SE 8 13 29.49 999 10 16 0.00 0.00
6:58 am 06:58 Sunny 29 -1.6 -1 -18.6 26 26 SE 10 17 29.53 1000 10 16 0.00 0.00
7:58 am 07:58 undefined 31 -0.5 3 -16 30 30 E 12 19 29.57 1001 10 16 0.00 0.00
8:58 am 08:58 Sunny 38 3.6 13 -10.8 34 34 ENE 18 30 29.55 1001 10 16 0.00 0.00
9:58 am 09:58 Sunny 41 4.8 14 -9.8 34 34 ENE 18 30 29.56 1001 10 16 0.00 0.00
10:58 am 10:58 Sunny 43 5.9 14 -10 31 31 ENE 18 30 29.55 1001 10 16 0.00 0.00
11:58 am 11:58 Sunny 46 7.5 15 -9.4 29 29 ENE 18 30 29.52 1000 10 16 0.00 0.00
12:58 pm 12:58 Sunny 49 9.6 16 -9 26 26 ENE 23 37 29.48 998 10 16 0.00 0.00
1:58 pm 13:58 Sunny 52 11 15 -9.4 23 23 ENE 17 28 29.47 998 10 16 0.00 0.00
2:58 pm 14:58 Sunny 54 12.1 12 -10.9 19 19 E 18 30 29.43 997 10 16 0.00 0.00
3:58 pm 15:58 Sunny 54 12 15 -9.7 21 21 E 14 22 29.38 995 10 16 0.00 0.00
4:58 pm 16:58 Sunny 57 13.7 14 -10.2 18 18 E 15 24 29.34 994 10 16 0.00 0.00
5:58 pm 17:58 Mostly Cloudy 57 14.1 13 -10.6 17 17 E 9 15 29.34 994 10 16 0.00 0.00
6:56 pm 18:56 Partly Cloudy 59 15 12 -11 16 16 E 17 28 29.31 993 10 16 0.00 0.00
6:58 pm 18:58 Partly Cloudy 58 14.5 12 -11.1 16 16 E 21 33 29.31 993 10 16 0.00 0.00
7:01 pm 19:01 Partly Cloudy 57 14 12 -11 17 17 ESE 14 22 29.33 993 10 16 0.00 0.00
7:30 pm 19:30 Mostly Cloudy 57 14 16 -9 20 20 SE 20 31 29.31 993 10 16 0.00 0.00
7:46 pm 19:46 Mostly Cloudy 57 14 19 -7 23 23 E 14 22 29.30 992 10 16 0.00 0.00
7:58 pm 19:58 Mostly Cloudy 56 13.6 19 -7.2 23 23 E 16 26 29.31 993 10 16 0.00 0.00
8:09 pm 20:09 Cloudy 57 14 19 -7 23 23 ESE 20 31 29.31 993 10 16 0.00 0.00
8:18 pm 20:18 Cloudy 57 14 19 -7 23 23 ESE 18 30 29.31 993 10 16 0.00 0.00
8:58 pm 20:58 Cloudy 56 13.5 21 -6.2 25 25 E 18 30 29.28 992 10 16 0.00 0.00
9:58 pm 21:58 Mostly Clear 54 12.3 20 -6.7 26 26 E 13 20 29.24 990 10 16 0.00 0.00
10:58 pm 22:58 Cloudy 55 12.7 23 -4.9 29 29 E 14 22 29.21 989 10 16 0.00 0.00
11:58 pm 23:58 Cloudy 55 12.7 22 -5.4 28 28 E 14 22 29.14 987 7 11 0.00 0.00

Powered by AerisWeather